Back to catalog

STARLINK-35139

AliveCommunicationsVLEO
NORAD 66380·PAYLOAD·🇺🇸 United States

Launched Nov 8, 2025 from Cape Canaveral Space Force Station

Loading…

Next Passes (next 24 hours)

TLE

FreshSource: CelesTrak SupGP

Epoch: Sep 14, 2026, 20:54 UTC

1 66380C 25257A   26257.87131944  .00045172  00000+0  13348-2 0  2579
2 66380  53.1600  53.9307 0001210  73.2958 143.2542 15.34362937    10

Track STARLINK-35139 in real time with AllMySat

Download on the App Store